Ainsworth, NE

3:55 AM CST on February 06, 2016 (GMT -0600)
Ainsworth Municipal

Weather History for KANW - July, 2013

Change the Weather History Date:

Thursday, July 18, 2013

  Actual Average Record
Temperature  
Mean Temperature 82 °F -  
Max Temperature 95 °F 85 °F 104 °F (2002)
Min Temperature 69 °F 61 °F 55 °F (2005)
Cooling Degree Days 16    
Growing Degree Days 32 (Base 50)    
Moisture  
Dew Point 63 °F    
Average Humidity 56    
Maximum Humidity 81    
Minimum Humidity 30    
Precipitation  
Precipitation 0.00 in - - ()
Sea Level Pressure  
Sea Level Pressure 30.02 in    
Wind  
Wind Speed 13 mph (SSW)    
Max Wind Speed 23 mph    
Max Gust Speed 30 mph    
Visibility 10 miles    
Events      
Averages and records for this station are not official NWS values.
T = Trace of Precipitation, MM = Missing Value Source: NWS Daily Summary

Daily Weather History Graph

Daily Weather History Graph

Search for Another Location

Airport or City:

Trip Planner

Search our weather history database for the weather conditions in past years. The results will help you decide how hot, cold, wet, or windy it might be!

Date:

Astronomy

Jul. 18, 2013 Rise Set
Actual Time 6:18 AM CDT 9:13 PM CDT
Civil Twilight 5:45 AM CDT 9:46 PM CDT
Nautical Twilight 5:02 AM CDT 10:28 PM CDT
Astronomical Twilight 4:13 AM CDT 11:18 PM CDT
Moon 5:11 PM CDT (7/18) 2:11 AM CDT (7/18)
Length of Visible Light 16h 01m
Length of Day
14h 54m
Waxing Gibbous, 77% of the Moon is Illuminated
Jul 18
Waxing Gibbous
Jul 22
Full
Jul 29
Last Quarter
Aug 6
New
Aug 14
First Quarter

Hourly Weather History & Observations

Time (CDT) Temp. Heat Index Dew Point Humidity Pressure Visibility Wind Dir Wind Speed Gust Speed Precip Events Conditions
12:15 AM 75.6 °F - 64.4 °F 68% 30.14 in 10.0 mi South 12.7 mph - N/A   Clear
12:35 AM 75.2 °F - 64.4 °F 69% 30.14 in 10.0 mi South 11.5 mph - N/A   Clear
12:55 AM 74.7 °F - 64.4 °F 70% 30.14 in 10.0 mi South 12.7 mph - N/A   Clear
1:15 AM 74.3 °F - 64.0 °F 70% 30.14 in 10.0 mi South 11.5 mph - N/A   Clear
1:35 AM 74.3 °F - 63.5 °F 69% 30.14 in 10.0 mi South 13.8 mph - N/A   Clear
1:55 AM 74.1 °F - 63.0 °F 68% 30.14 in 10.0 mi South 12.7 mph - N/A   Clear
2:15 AM 74.3 °F - 62.6 °F 67% 30.13 in 10.0 mi South 12.7 mph - N/A   Clear
2:35 AM 73.6 °F - 62.6 °F 68% 30.13 in 10.0 mi South 10.4 mph - N/A   Clear
2:55 AM 72.7 °F - 62.6 °F 71% 30.12 in 10.0 mi South 11.5 mph - N/A   Clear
3:15 AM 72.7 °F - 62.6 °F 71% 30.11 in 10.0 mi South 11.5 mph - N/A   Clear
3:35 AM 72.5 °F - 62.6 °F 71% 30.11 in 10.0 mi South 11.5 mph - N/A   Clear
3:55 AM 71.6 °F - 62.6 °F 73% 30.11 in 10.0 mi South 11.5 mph - N/A   Clear
4:15 AM 71.2 °F - 62.6 °F 74% 30.10 in 10.0 mi South 12.7 mph - N/A   Clear
4:35 AM 70.9 °F - 62.6 °F 75% 30.10 in 10.0 mi South 11.5 mph - N/A   Clear
4:55 AM 70.9 °F - 62.6 °F 75% 30.09 in 10.0 mi South 10.4 mph - N/A   Clear
5:15 AM 70.7 °F - 63.0 °F 76% 30.09 in 10.0 mi South 11.5 mph - N/A   Clear
5:35 AM 70.2 °F - 63.1 °F 78% 30.08 in 10.0 mi South 11.5 mph - N/A   Clear
5:55 AM 69.8 °F - 63.1 °F 79% 30.08 in 10.0 mi South 12.7 mph - N/A   Clear
6:15 AM 69.4 °F - 63.1 °F 80% 30.07 in 10.0 mi South 11.5 mph - N/A   Clear
6:35 AM 69.4 °F - 63.5 °F 81% 30.08 in 10.0 mi South 11.5 mph - N/A   Clear
6:55 AM 70.2 °F - 63.5 °F 79% 30.08 in 10.0 mi South 13.8 mph - N/A   Clear
7:15 AM 70.7 °F - 63.9 °F 79% 30.08 in 10.0 mi South 12.7 mph 18.4 mph N/A   Clear
7:35 AM 71.6 °F - 63.9 °F 76% 30.08 in 10.0 mi South 16.1 mph - N/A   Clear
7:55 AM 73.0 °F - 64.2 °F 74% 30.07 in 10.0 mi South 16.1 mph 23.0 mph N/A   Clear
8:15 AM 74.5 °F - 64.4 °F 71% 30.07 in 10.0 mi South 18.4 mph 23.0 mph N/A   Clear
8:35 AM 75.2 °F - 64.4 °F 69% 30.07 in 10.0 mi SSW 17.3 mph - N/A   Clear
8:55 AM 76.5 °F - 64.4 °F 66% 30.07 in 10.0 mi SSW 19.6 mph 23.0 mph N/A   Clear
9:15 AM 78.1 °F - 64.6 °F 63% 30.07 in 10.0 mi SSW 17.3 mph 21.9 mph N/A   Clear
9:35 AM 79.2 °F - 64.4 °F 60% 30.07 in 10.0 mi South 16.1 mph 23.0 mph N/A   Clear
9:55 AM 80.2 °F 81.9 °F 64.2 °F 58% 30.06 in 10.0 mi SSW 17.3 mph - N/A   Clear
10:15 AM 81.7 °F 82.9 °F 63.0 °F 53% 30.05 in 10.0 mi SSW 19.6 mph - N/A   Clear
10:35 AM 82.9 °F 83.7 °F 62.1 °F 49% 30.05 in 10.0 mi SSW 18.4 mph 26.5 mph N/A   Clear
10:55 AM 84.2 °F 84.8 °F 61.7 °F 47% 30.03 in 10.0 mi SSW 23.0 mph - N/A   Clear
11:15 AM 85.3 °F 85.4 °F 61.3 °F 44% 30.03 in 10.0 mi SSW 23.0 mph - N/A   Clear
11:35 AM 86.0 °F 86.1 °F 61.0 °F 43% 30.03 in 10.0 mi SSW 21.9 mph 26.5 mph N/A   Clear
11:55 AM 87.1 °F 87.2 °F 61.3 °F 42% 30.02 in 10.0 mi SSW 20.7 mph 25.3 mph N/A   Clear
12:15 PM 88.5 °F 88.3 °F 60.4 °F 39% 30.01 in 10.0 mi SSW 20.7 mph 29.9 mph N/A   Clear
12:35 PM 89.2 °F 89.0 °F 60.8 °F 38% 30.01 in 10.0 mi SSW 19.6 mph 28.8 mph N/A   Clear
12:55 PM 89.2 °F 88.7 °F 59.9 °F 37% 30.00 in 10.0 mi SW 18.4 mph 28.8 mph N/A   Clear
1:15 PM 89.6 °F 89.2 °F 59.9 °F 37% 30.01 in 10.0 mi SSW 17.3 mph 27.6 mph N/A   Clear
1:35 PM 90.5 °F 89.8 °F 59.2 °F 35% 30.01 in 10.0 mi SW 16.1 mph 29.9 mph N/A   Clear
1:55 PM 91.2 °F 90.5 °F 58.8 °F 34% 29.99 in 10.0 mi SW 18.4 mph 27.6 mph N/A   Clear
2:15 PM 91.6 °F 90.7 °F 59.0 °F 33% 29.99 in 10.0 mi SSW 18.4 mph 25.3 mph N/A   Clear
2:35 PM 92.1 °F 91.4 °F 58.8 °F 33% 29.98 in 10.0 mi SW 17.3 mph 24.2 mph N/A   Clear
2:55 PM 92.5 °F 91.6 °F 58.5 °F 32% 29.98 in 10.0 mi SW 17.3 mph 25.3 mph N/A   Clear
3:15 PM 93.2 °F 92.6 °F 58.8 °F 32% 29.97 in 10.0 mi SW 17.3 mph 21.9 mph N/A   Clear
3:35 PM 93.7 °F 93.0 °F 59.2 °F 31% 29.96 in 10.0 mi SSW 15.0 mph - N/A   Clear
3:55 PM 93.6 °F 92.7 °F 58.6 °F 31% 29.96 in 10.0 mi SW 13.8 mph 23.0 mph N/A   Clear
4:15 PM 94.1 °F 93.1 °F 58.6 °F 30% 29.95 in 10.0 mi SSW 17.3 mph 24.2 mph N/A   Clear
5:15 PM 94.5 °F 94.0 °F 59.4 °F 31% 29.95 in 10.0 mi WSW 13.8 mph 18.4 mph N/A   Scattered Clouds
5:35 PM 94.1 °F 93.9 °F 60.4 °F 32% 29.94 in 10.0 mi SW 11.5 mph - N/A   Clear
5:55 PM 94.3 °F 94.1 °F 60.1 °F 32% 29.94 in 10.0 mi West 9.2 mph - N/A   Scattered Clouds
6:15 PM 94.3 °F 94.1 °F 60.4 °F 32% 29.93 in 10.0 mi WSW 12.7 mph - N/A   Clear
6:35 PM 93.6 °F 93.1 °F 59.7 °F 32% 29.92 in 10.0 mi West 8.1 mph - N/A   Clear
6:55 PM 93.2 °F 92.9 °F 59.9 °F 33% 29.92 in 10.0 mi West 9.2 mph - N/A   Clear
7:15 PM 92.5 °F 92.2 °F 60.6 °F 34% 29.92 in 10.0 mi WSW 6.9 mph - N/A   Clear
7:35 PM 91.2 °F 91.8 °F 62.6 °F 38% 29.92 in 10.0 mi West 5.8 mph - N/A   Clear
7:55 PM 90.5 °F 91.4 °F 62.8 °F 40% 29.91 in 10.0 mi West 3.5 mph - N/A   Clear
8:15 PM 87.6 °F 90.4 °F 66.7 °F 50% 29.91 in 10.0 mi SW 4.6 mph - N/A   Clear
8:35 PM 82.6 °F 85.7 °F 68.4 °F 62% 29.91 in 10.0 mi South 5.8 mph - N/A   Clear
8:55 PM 80.4 °F 83.0 °F 67.8 °F 65% 29.92 in 10.0 mi SSW 6.9 mph - N/A   Clear
9:15 PM 79.0 °F - 68.2 °F 69% 29.92 in 10.0 mi SSW 4.6 mph - N/A   Clear
9:35 PM 79.3 °F - 67.6 °F 67% 29.92 in 10.0 mi Calm Calm - N/A   Clear
9:55 PM 81.9 °F 84.4 °F 67.1 °F 61% 29.94 in 10.0 mi South 4.6 mph - N/A   Clear
10:15 PM 80.4 °F 82.7 °F 66.7 °F 63% 29.94 in 10.0 mi SSE 3.5 mph - N/A   Clear
10:35 PM 79.9 °F - 66.7 °F 64% 29.95 in 10.0 mi Calm Calm - N/A   Clear
10:55 PM 77.2 °F - 67.3 °F 71% 29.95 in 10.0 mi South 5.8 mph - N/A   Clear
11:15 PM 77.9 °F - 66.4 °F 68% 29.95 in 10.0 mi SW 8.1 mph - N/A   Clear
11:35 PM 78.6 °F - 65.5 °F 64% 29.96 in 10.0 mi WSW 4.6 mph - N/A   Clear
11:55 PM 76.8 °F - 65.8 °F 69% 29.96 in 10.0 mi West 5.8 mph - N/A   Clear